User: anonymous   Login
Location: Sun City Center
(27.6996°N, 82.3528°W)
Time: 21:03:20
(UTC-04:00)
Language:

Cosmos 2084 Rocket - Orbit

View from above orbital plane
View from above orbital plane
View from above satellite
View from above satellite

Ground track
Ground track

The orbit data is extracted from the following two-line orbital elements,

1 20666U 90055D   18111.58462580 +.00000083 +00000-0 +25651-4 0  9993
2 20666 062.7851 196.7017 0103548 140.8160 220.0490 14.92116272507726
Epoch (UTC): 21 April 2018 14:01:51
Eccentricity: 0.0103548
inclination: 62.7851°
perigee height: 519 km
apogee height: 663 km
right ascension of ascending node: 196.7017°
argument of perigee: 140.8160°
revolutions per day: 14.92116272
mean anomaly at epoch: 220.0490°
orbit number at epoch: 50772

The dashed part of the orbit path shows where the satellite is in the earth's shadow,  

DLR